Find STARLINK-37524

NORAD ID: 68842 Int'l Des: 2026-094D Owner: starlink Country: USA Constellation: starlink operational
LEOCIRCULARRETROGRADE

リアルタイム位置

3D地球を読み込み中...

STARLINK-37524について

説明を読み込み中...

次回通過

Passes for default location (London). Set your location on the main map for personalized predictions.

高度履歴

Loading altitude history...

軌道要素

1 68842U 26094D 26121.91668981 -.01723051 90986-3 -32343-2 0 9992
2 68842 97.2827 135.5261 0001262 73.8555 144.2050 16.01036113 1922
Epoch: May 1, 2026 • Age: 5 hours

現在のステータス

高度 296.0 km
速度 7.73 km/s
衛星直下点 -57.15°S, 115.74°W
タイプ internet

Most Searched